Wind_Speed
34 30 27 25 23 18 13 20 33 38 37 39 38 40 44 45 44 44 43 40 40 40 38 33 30 29 30 32 30 27 25 24 24 23 23 23 18 18 18 17 16 17 16
35 27 21 17 16 17 15 9 17 41 45 45 43 42 44 46 51 47 44 41 42 42 42 39 36 35 33 33 31 32 30 26 30 30 26 22 23 25 24 23 22 21 21
40 39 39 31 24 16 11 9 13 23 45 53 50 49 47 43 46 46 45 45 46 45 45 44 41 39 38 37 36 36 34 34 35 35 26 16 14 28 29 29 27 26 26
40 42 43 41 32 22 13 8 13 11 32 45 54 58 56 54 55 52 51 49 47 47 45 45 46 44 43 42 41 40 39 35 39 39 38 28 18 20 18 31 31 30 29
35 39 42 40 32 25 21 11 10 12 15 38 48 62 60 57 53 53 54 53 51 51 47 47 48 49 48 46 46 45 45 41 40 46 43 40 34 21 26 31 34 36 35
38 40 39 35 35 29 24 19 10 5 12 15 41 52 63 55 55 52 55 57 55 53 52 50 49 49 51 52 50 50 48 46 44 45 48 49 45 43 35 30 29 33 33
37 41 40 38 38 36 26 24 18 11 6 11 20 43 54 57 56 57 58 60 60 58 56 54 53 53 52 55 54 52 52 50 48 47 50 52 50 45 40 35 31 32 32
29 37 39 36 36 34 28 26 23 17 12 14 16 20 43 55 59 56 58 58 60 61 59 58 57 56 53 53 56 56 54 53 51 49 49 52 54 51 49 44 40 36 33
25 31 34 34 35 33 31 30 28 26 18 18 19 19 20 44 55 60 58 60 60 61 63 63 60 59 58 56 55 58 58 57 55 53 51 51 51 55 52 50 48 43 38
22 27 22 29 33 33 29 30 28 29 24 18 20 25 24 25 47 57 59 57 57 56 60 62 61 61 60 59 58 56 59 59 59 57 55 53 53 52 54 56 53 49 48
22 23 23 23 30 34 34 30 36 31 26 19 16 24 25 23 30 47 49 55 56 58 57 62 62 60 62 61 61 59 57 62 62 61 60 57 54 54 53 54 55 55 53
18 23 26 32 35 34 36 37 31 38 29 22 19 16 23 23 27 29 53 42 46 54 55 62 63 61 61 64 63 62 61 62 64 65 64 62 58 57 55 54 56 56 56
16 17 23 27 33 35 34 36 35 32 34 25 22 17 13 23 26 36 34 49 31 50 56 58 67 65 61 63 64 62 61 61 63 63 67 66 62 60 58 58 57 57 59
16 17 21 26 28 29 31 33 35 35 33 29 22 20 13 14 22 26 28 30 52 55 45 58 64 68 65 64 67 64 62 60 61 61 65 66 66 63 61 59 58 57 58
19 24 24 25 27 27 31 35 29 34 32 30 25 21 17 15 11 22 20 29 43 53 54 57 61 69 70 64 64 60 58 58 59 61 62 64 65 63 62 59 57 56 56
20 22 22 27 27 22 29 34 32 25 32 30 28 25 19 17 18 18 16 22 31 38 46 50 61 59 65 68 66 58 56 56 57 58 60 60 61 60 59 60 55 53 54
17 21 20 22 22 21 23 31 33 23 26 24 27 30 24 22 21 15 14 19 19 22 33 36 32 48 59 72 59 55 53 54 57 58 58 58 59 58 57 57 56 55 55
20 25 14 18 23 23 25 28 32 24 28 26 25 26 29 25 24 21 13 14 17 25 20 24 21 36 42 39 35 45 52 55 56 58 56 56 57 57 55 55 54 55 56
22 14 11 19 24 24 26 25 27 28 31 31 26 26 27 27 26 25 23 21 21 13 32 25 17 16 30 31 44 46 57 60 57 57 56 58 57 56 54 52 53 52 52
11 10 16 20 24 26 27 28 26 28 33 32 28 24 23 26 25 25 23 21 20 20 18 19 25 18 18 19 38 48 56 45 56 55 59 58 57 55 54 53 51 51 48
8 12 17 19 21 26 28 28 27 30 31 29 27 23 22 22 23 23 22 21 20 20 20 15 16 14 19 21 21 19 41 35 42 53 51 58 58 56 53 52 49 48 41
12 15 17 19 23 25 27 25 29 31 31 28 26 25 25 23 24 22 22 23 21 21 23 21 17 17 14 16 24 20 30 41 34 33 33 23 24 50 55 51 50 48 43
16 17 18 21 24 24 27 26 29 32 30 27 25 26 26 26 27 25 22 21 23 23 23 23 23 22 22 14 8 14 17 28 34 39 50 67 62 46 49 50 46 46 50
17 17 19 21 24 25 28 27 30 31 27 26 27 26 27 28 30 28 23 23 19 18 22 23 22 22 23 24 20 14 20 14 15 33 31 34 42 46 48 40 42 47 38
15 17 18 19 20 24 27 29 31 29 29 27 31 29 28 29 31 29 25 23 18 19 19 20 21 21 20 21 22 23 23 20 16 15 16 27 29 46 38 31 29 38 33
17 19 20 22 24 27 29 31 29 26 27 26 31 29 29 30 31 31 31 25 20 17 15 15 17 21 18 16 16 16 19 18 16 7 14 22 24 30 43 56 48 50 38
Wind_Direction
325 313 311 315 316 325 338 249 241 233 224 219 222 217 222 222 223 222 221 221 221 220 221 218 215 212 210 204 199 199 201 193 193 191 203 213 217 223 223 228 231 234 234
6 359 355 338 335 345 334 328 261 241 230 227 233 231 227 228 226 223 219 219 221 222 221 221 217 216 215 211 205 205 202 206 200 204 211 206 210 213 218 221 223 233 237
6 4 4 358 356 358 355 312 304 264 247 239 233 223 223 222 219 220 221 218 219 222 222 223 219 218 218 216 212 213 212 210 204 207 209 189 205 208 214 219 223 229 237
1 354 357 357 2 357 332 312 285 294 251 231 224 219 220 221 225 227 225 221 218 222 222 224 224 221 219 218 218 218 219 217 208 209 218 221 213 195 205 217 224 232 238
359 352 350 353 357 0 356 327 297 265 254 245 225 220 223 228 231 227 226 224 221 221 221 224 224 223 222 221 220 219 222 223 217 213 211 218 225 227 218 220 226 233 240
354 354 351 350 358 359 3 2 339 311 260 248 239 227 225 221 222 223 221 226 225 223 222 224 226 226 225 224 222 223 224 225 224 221 219 217 219 226 227 230 236 241 244
0 359 359 357 351 359 7 12 8 1 269 278 241 237 235 228 230 232 226 225 227 224 224 225 227 227 228 228 226 223 225 227 226 225 223 224 226 230 234 235 239 243 248
358 3 3 360 357 355 358 356 354 345 330 311 263 254 237 241 231 234 232 226 230 233 231 228 228 230 230 230 228 227 228 228 229 230 229 227 229 232 234 239 240 240 243
358 2 3 3 0 358 355 352 344 339 330 322 302 270 267 241 239 234 238 239 231 235 233 232 229 230 231 232 231 229 230 230 231 232 233 232 232 233 237 239 242 244 245
1 359 1 8 7 5 359 360 340 343 341 333 312 293 284 266 241 242 237 236 233 228 236 235 234 232 233 233 234 233 233 233 234 234 234 235 235 236 237 239 242 245 248
356 358 356 346 3 9 10 1 359 352 347 348 333 305 298 290 262 247 237 240 236 235 231 238 237 236 236 235 236 236 236 236 236 237 236 237 237 238 238 239 243 244 246
6 356 2 10 11 9 14 14 2 7 355 350 344 326 309 297 264 253 245 245 240 240 238 236 239 238 238 238 237 238 238 239 237 239 239 240 238 239 241 241 242 245 245
359 359 359 5 8 9 5 11 10 4 4 352 346 340 330 298 277 267 278 242 259 247 241 239 240 241 243 241 240 241 240 241 242 241 241 242 241 241 241 241 243 243 246
355 347 350 353 358 359 3 4 6 6 6 1 353 348 333 334 280 281 272 250 250 265 239 242 240 243 242 243 243 242 241 242 245 246 244 244 244 245 244 244 244 245 245
344 341 342 349 356 347 348 352 1 359 0 2 357 2 357 338 307 282 272 259 242 240 250 248 242 244 240 239 238 237 241 246 246 246 246 245 247 249 249 246 246 246 246
340 349 351 353 352 343 341 346 356 359 353 355 3 360 12 6 360 291 283 263 256 257 250 246 247 241 235 234 238 238 241 244 243 242 246 248 248 249 251 253 253 250 248
326 335 347 350 346 345 340 347 350 358 354 350 354 5 7 11 10 358 332 280 265 255 245 239 249 247 238 237 235 241 241 244 244 243 242 246 249 249 248 249 251 252 254
322 333 335 340 341 343 343 343 343 355 357 354 352 1 7 4 9 5 351 357 280 269 277 256 262 241 252 257 245 256 249 250 249 249 245 244 248 250 249 249 248 249 249
328 333 341 344 342 340 341 339 341 348 357 359 350 353 1 4 3 5 5 355 340 315 278 293 289 272 244 234 248 250 243 242 247 249 252 251 252 255 256 255 254 256 251
349 337 346 350 346 342 341 342 343 347 353 354 354 347 347 358 4 2 0 9 3 3 331 311 298 300 291 257 245 241 256 249 246 251 248 252 255 256 255 255 255 256 257
337 344 345 348 346 340 338 343 344 350 349 348 350 355 352 346 355 0 356 358 3 13 16 348 329 318 291 285 280 249 225 254 240 245 244 247 253 253 258 257 254 254 258
342 346 343 342 340 338 341 343 345 345 343 348 351 355 358 359 350 351 358 357 355 10 7 15 14 5 339 295 288 290 249 246 256 251 230 257 267 256 259 256 257 255 253
334 341 339 335 336 338 342 341 344 341 343 349 353 354 356 358 359 356 345 356 354 354 357 6 13 10 7 351 319 296 327 265 258 256 257 253 272 284 256 261 260 255 251
331 335 333 335 335 336 337 339 337 340 343 348 353 351 353 353 354 357 358 352 354 349 344 349 355 360 1 4 7 344 302 317 275 249 250 244 242 254 251 257 261 248 252
320 319 325 330 329 330 333 334 334 336 339 342 348 347 348 348 346 352 356 356 360 349 337 337 338 339 341 355 356 356 359 354 299 290 247 241 241 241 255 249 257 263 261
312 314 315 317 320 322 324 328 329 330 335 338 342 341 340 342 345 345 346 350 349 347 338 323 321 317 320 316 324 334 341 355 359 333 270 247 246 244 244 252 258 254 259
Height
1503 1501 1501 1502 1502 1502 1503 1503 1504 1504 1507 1508 1510 1513 1520 1524 1527 1531 1537 1542 1546 1550 1553 1557 1562 1565 1567 1569 1572 1576 1580 1583 1588 1590 1592 1594 1596 1598 1599 1599 1600 1600 1601
1497 1497 1494 1494 1494 1497 1500 1502 1503 1502 1499 1502 1503 1506 1512 1513 1516 1522 1528 1535 1539 1543 1546 1550 1554 1558 1563 1566 1568 1570 1574 1580 1583 1585 1588 1589 1592 1592 1594 1595 1595 1596 1598
1501 1497 1495 1491 1489 1489 1491 1493 1495 1494 1495 1496 1499 1504 1510 1515 1516 1517 1519 1523 1527 1531 1537 1542 1547 1551 1556 1558 1561 1565 1568 1572 1577 1579 1582 1584 1584 1586 1588 1589 1590 1592 1593
1503 1499 1494 1489 1487 1486 1487 1488 1489 1490 1490 1493 1494 1492 1495 1498 1502 1505 1509 1513 1519 1523 1529 1533 1538 1543 1547 1551 1554 1559 1562 1567 1570 1574 1576 1578 1578 1580 1583 1584 1585 1586 1587
1508 1502 1494 1490 1488 1486 1484 1483 1485 1489 1486 1490 1490 1492 1491 1491 1495 1498 1501 1504 1508 1514 1519 1523 1527 1533 1538 1541 1546 1550 1555 1558 1562 1563 1567 1571 1573 1574 1574 1575 1578 1580 1581
1508 1502 1494 1488 1486 1485 1482 1481 1479 1482 1482 1481 1485 1486 1486 1487 1488 1492 1495 1496 1499 1504 1509 1514 1519 1524 1528 1531 1536 1541 1546 1549 1553 1556 1559 1560 1563 1564 1568 1570 1572 1573 1575
1506 1501 1495 1486 1478 1478 1481 1477 1473 1475 1476 1475 1475 1479 1480 1483 1483 1483 1486 1488 1491 1496 1500 1504 1509 1513 1517 1522 1527 1532 1536 1539 1544 1546 1549 1553 1555 1560 1563 1566 1567 1568 1569
1511 1504 1496 1490 1485 1482 1481 1477 1472 1471 1471 1470 1470 1469 1474 1475 1479 1481 1480 1481 1483 1483 1489 1493 1500 1505 1510 1514 1519 1523 1526 1530 1534 1538 1541 1544 1546 1550 1554 1556 1560 1560 1562
1514 1508 1501 1494 1490 1484 1480 1476 1473 1469 1467 1465 1463 1462 1464 1467 1467 1473 1474 1475 1477 1478 1481 1484 1488 1494 1500 1505 1508 1513 1516 1519 1522 1526 1532 1535 1538 1541 1545 1547 1550 1553 1553
1516 1511 1504 1499 1493 1486 1480 1477 1471 1467 1463 1461 1457 1455 1455 1458 1461 1463 1466 1469 1470 1474 1474 1478 1482 1487 1491 1495 1500 1504 1508 1511 1513 1516 1521 1525 1529 1532 1534 1538 1541 1544 1547
1512 1509 1507 1499 1492 1486 1477 1473 1467 1463 1458 1456 1453 1449 1447 1451 1453 1453 1454 1462 1464 1465 1467 1467 1472 1478 1483 1486 1489 1494 1498 1500 1504 1507 1509 1513 1518 1521 1524 1528 1530 1533 1537
1510 1507 1503 1495 1486 1480 1476 1473 1468 1460 1454 1452 1450 1446 1440 1441 1441 1441 1444 1452 1449 1458 1461 1459 1460 1465 1471 1476 1479 1483 1486 1487 1490 1495 1498 1500 1506 1510 1513 1516 1518 1520 1524
1511 1507 1502 1495 1489 1483 1479 1475 1469 1460 1454 1450 1444 1441 1437 1433 1429 1426 1425 1425 1427 1448 1451 1454 1451 1451 1459 1463 1466 1471 1474 1476 1477 1482 1486 1488 1495 1497 1500 1503 1506 1510 1514
1509 1504 1498 1492 1487 1486 1480 1476 1470 1461 1454 1450 1445 1439 1433 1430 1424 1419 1417 1416 1427 1415 1433 1443 1443 1442 1443 1450 1453 1459 1463 1467 1471 1471 1473 1477 1481 1483 1487 1491 1494 1499 1503
1504 1500 1495 1490 1484 1480 1478 1477 1468 1464 1457 1452 1446 1440 1433 1428 1421 1420 1415 1414 1420 1420 1430 1431 1433 1431 1430 1433 1441 1449 1454 1456 1458 1460 1462 1465 1469 1471 1476 1481 1483 1488 1492
1500 1496 1490 1484 1481 1481 1479 1475 1468 1462 1458 1451 1447 1442 1432 1425 1421 1417 1414 1415 1412 1416 1417 1413 1418 1421 1422 1428 1427 1433 1437 1442 1447 1449 1450 1452 1457 1462 1467 1471 1475 1478 1482
1500 1496 1492 1488 1485 1483 1480 1472 1470 1464 1459 1452 1443 1434 1428 1424 1421 1415 1412 1415 1415 1414 1414 1410 1409 1411 1398 1406 1416 1421 1423 1429 1433 1436 1439 1442 1444 1450 1455 1460 1463 1468 1470
1499 1496 1493 1489 1485 1481 1476 1472 1469 1463 1458 1451 1444 1435 1428 1424 1417 1414 1412 1416 1409 1405 1403 1399 1401 1402 1397 1381 1395 1409 1414 1420 1424 1427 1428 1432 1434 1437 1442 1448 1451 1454 1457
1499 1495 1492 1487 1482 1478 1475 1471 1467 1462 1454 1448 1440 1431 1425 1422 1416 1411 1403 1396 1394 1390 1389 1394 1392 1393 1390 1389 1396 1400 1404 1405 1411 1417 1418 1421 1425 1431 1436 1441 1442 1444 1447
1497 1495 1491 1486 1481 1476 1472 1468 1463 1457 1450 1445 1440 1434 1426 1420 1415 1411 1408 1400 1399 1389 1389 1382 1383 1381 1384 1380 1389 1393 1388 1378 1399 1406 1405 1408 1413 1420 1425 1427 1430 1431 1435
1497 1492 1488 1483 1479 1475 1470 1464 1460 1453 1450 1446 1441 1434 1426 1417 1413 1410 1408 1403 1400 1391 1389 1387 1385 1384 1377 1380 1380 1378 1372 1380 1389 1391 1396 1401 1404 1408 1415 1418 1419 1418 1428
1493 1489 1485 1480 1476 1473 1469 1464 1457 1452 1449 1444 1438 1432 1426 1419 1411 1406 1402 1400 1397 1389 1391 1386 1382 1379 1371 1376 1376 1374 1367 1372 1377 1382 1383 1384 1392 1397 1406 1408 1410 1411 1415
1490 1486 1482 1479 1475 1471 1466 1460 1456 1451 1446 1441 1436 1430 1425 1420 1414 1406 1400 1395 1393 1387 1391 1385 1380 1377 1376 1373 1367 1369 1371 1365 1369 1374 1371 1377 1382 1391 1395 1397 1400 1401 1402
1487 1483 1479 1476 1473 1468 1464 1458 1453 1449 1443 1438 1433 1430 1424 1419 1415 1409 1403 1398 1391 1391 1389 1384 1380 1377 1376 1372 1367 1362 1373 1362 1362 1365 1364 1362 1373 1383 1370 1386 1391 1387 1392
1483 1480 1476 1473 1469 1466 1462 1458 1452 1445 1440 1433 1428 1425 1423 1417 1414 1409 1403 1398 1393 1391 1385 1385 1380 1379 1378 1374 1371 1367 1367 1360 1361 1359 1360 1369 1372 1369 1373 1378 1381 1379 1380
1479 1476 1472 1469 1466 1463 1459 1453 1448 1443 1437 1432 1428 1424 1420 1415 1410 1404 1400 1399 1395 1391 1389 1385 1382 1382 1379 1376 1374 1371 1370 1366 1361 1353 1361 1363 1359 1360 1358 1361 1369 1372 1374